Location: Unspecified
(0.0000°N, 0.0000°E)
Time: 08:17:39
(UTC+01:00)

deb Delta 98 - Visible Passes

Search period start: 06 December 2023 00:00
Search period end: 16 December 2023 00:00
Orbit: 1509 x 2020 km, 102.0° (Epoch: 05 December)

Date Brightness Start Highest point End Pass type
(mag) Time Alt. Az. Time Alt. Az. Time Alt. Az.
07 Dec ? 23:19:10 10° S 23:19:10 10° S 23:19:16 10° S visible
08 Dec ? 23:42:07 11° S 23:42:07 11° S 23:42:22 10° S visible
10 Dec ? 00:05:04 10° SSW 00:05:04 10° SSW 00:05:06 10° SSW visible
12 Dec ? 23:12:02 12° S 23:12:02 12° S 23:12:30 10° S visible
13 Dec ? 23:35:00 13° S 23:35:00 13° S 23:35:41 10° S visible
14 Dec ? 23:57:58 12° SSW 23:57:58 12° SSW 23:58:30 10° SSW visible
